DELTA 1 DEB, 720

Orbit data source: Space-Track

DELTA 1 DEB, 720 is space debris in LEO originally from a launch on Sat, 21 Dec 1963 UTC launched from the Air Force Western Test Range (AFWTR). Debris objects in space refer to the collection of defunct objects orbiting the Earth. Examples of debris include non-operational satellites, rocket bodies, and fragments generated from explosions, collisions, or faulty payload assembly.

Loading next visibility...
Identifier
720, 1963-054C
Orbit
LEO
Country
Flag of USUS
Related business
Manufacturer
Unknown
Mission
Spacecraft
Bus & Motor
Unknown
Mass
~1 kg wet, ~1 kg dry
Launch date (UTC)
1963-12-21 (62 years ago)
Launch vehicle
Unknown
Launch site
Air Force Western Test Range (AFWTR)
Object type
Payload
Rocket body
Debris
Shape & HBR
Unknown
Radar Cross Section
Small (<0.1 m²)

Expand to show TLE details & history
Last TLE update: 21 hours ago

TLE from 21 hours ago
0 DELTA 1 DEB
1 00720U 63054C   26118.68188821  .00000258  00000-0  10189-3 0  9994
2 00720  58.4715 306.6849 0105957 358.5487   1.5218 14.50631594274305
Epoch: 2026-04-28T16:21Z
TLE epoch observation values (Epoch: 2026-04-28T16:21:55.141Z)
Latitude
-0.00007°
Longitude
-155.4486°
Altitude
649.765 km
Speed
7.573 km/s
True Right ascension
20h 26m 44s
True Declination
0° 00' 00"
Sunlit
Object was in daylight at epoch
Visualization orbit readout
Latitude
Unknown
Longitude
Unknown
Altitude
Unknown
Speed
Unknown
Apparent Right ascension
Unknown
Apparent Declination
Unknown
Sunlit
N/A
Visualization observer readout
Local Sidereal Time
20:30:42
Azimuth
Unknown
Elevation
Unknown
Doppler factor
Unknown
Orbital elements
Apogee altitude
798.275 km
Perigee altitude
647.792 km
Semi-major axis
7,101.171 km
Eccentricity
0.0106
Inclination
58.4715°
RAAN
306.6849°
Arg. of periapsis
358.5487°
True anomaly
1.55448°
Mean anomaly
1.5218°
Eccentric anomaly
1.5381°
Mean motion
3.62701 °/min
Orbital period
99.26 mins
BSTAR
0.00010189
Loading maneuver chart data...
Computing Atmospheric mass density...
Loading historical data...
Loading historical data...
Loading historical data...
Loading historical data...
Loading historical data...
Loading historical data...
Loading historical data...
Other satellites on launch #54 in the year 1963 (1963-12-21 UTC)

Documentation

Showing up to 5 results
|